Meteo Giornale » Osservazioni meteo Stati Uniti (USA) » Clinton Sampson

ore: 17:35 - Osservazioni Meteo Clinton Sampson
Lat. 34° 58' N Lon. 78° 21' W Alt. 45 metri s.l.m.

sereno

33 °C

Sereno

Temp. 24 Ore

21 °C

33 °C

Nord

0 Km/h

Dew point 23 °C

Umidità 55 %

Visibilità  10 Km

Il sole sorge alle ore 06:45

Il sole tramonta alle ore 19:41

Data e Ora Cielo e Fenomeni T °C DP °C Um. % Pres. hPa Vis. km Vento km/h
Oggi h: 17:35 sereno Sereno 33 23 55 1018 10 N 0
Oggi h: 17:15 sereno Sereno 33 23 55 1018 10 N 5.5
Oggi h: 16:55 sereno Sereno 33 23 55 1018 10 N 5.5
Oggi h: 16:35 sereno Sereno 33 23 55 1018 10 N 0
Oggi h: 16:15 nuvoloso Nuvoloso 33 24 59 1018 10 N 5.5
Oggi h: 15:55 nuvoloso Nuvoloso 33 24 59 1018 10 N 0
Oggi h: 15:35 molto_nuvoloso Molto Nuvoloso 33 23 55 1019 10 N 5.5
Oggi h: 15:15 nuvoloso Nuvoloso 32 24 62 1019 10 NO 9.3
Oggi h: 14:55 sereno Sereno 32 24 62 1019 10 N 0
Oggi h: 14:35 sereno Sereno 32 24 62 1019 10 N 0
Oggi h: 14:15 nuvoloso Nuvoloso 32 24 62 1019 10 N 0
Oggi h: 13:55 molto_nuvoloso Molto Nuvoloso 32 25 66 1019 10 N 5.5
Oggi h: 13:35 molto_nuvoloso Molto Nuvoloso 31 24 66 1020 10 N 0
Oggi h: 13:15 nuvoloso Nuvoloso 31 25 70 1020 10 N 0
Oggi h: 12:55 nuvoloso Nuvoloso 30 24 70 1020 10 N 0
Oggi h: 12:35 nuvoloso Nuvoloso 31 24 66 1020 10 N 0
Oggi h: 12:15 sereno Sereno 30 25 74 1020 10 N 5.5
Oggi h: 11:55 nuvoloso Nuvoloso 30 24 70 1020 10 N 5.5
Oggi h: 11:35 sereno Sereno 30 25 74 1020 10 N 0
Oggi h: 11:15 sereno Sereno 29 24 74 1020 10 N 0
Oggi h: 10:55 sereno Sereno 29 25 79 1020 10 N 0
Oggi h: 10:35 sereno Sereno 29 25 79 1020 10 N 5.5
Oggi h: 10:15 sereno Sereno 28 26 88 1020 10 N 0
Oggi h: 09:55 sereno Sereno 28 27 94 1020 10 N 0
Oggi h: 09:35 sereno Sereno 26 26 100 1020 10 N 0
Oggi h: 09:15 sereno Sereno 26 26 100 1020 10 N 0
Oggi h: 08:55 sereno Sereno 25 25 100 1020 10 N 0
Oggi h: 08:35 sereno Sereno 24 24 100 1020 10 N 0
Oggi h: 08:15 sereno Sereno 23 23 100 1020 10 N 0
Oggi h: 07:55 sereno Sereno 23 23 100 1020 10 N 0
Oggi h: 07:35 sereno Sereno 22 22 100 1020 10 N 0
Oggi h: 07:15 sereno Sereno 21 21 100 1020 8 N 0
Oggi h: 06:55 sereno Sereno 22 22 100 1020 10 N 0
Oggi h: 06:35 sereno Sereno 22 22 100 1019 10 N 0
Oggi h: 06:15 sereno Sereno 21 21 100 1019 11 N 0
Oggi h: 05:55 sereno Sereno 22 22 100 1019 10 N 0
Oggi h: 05:35 sereno Sereno 22 22 100 1019 10 N 0
Oggi h: 05:15 sereno Sereno 22 22 100 1019 11 N 0
Oggi h: 04:55 sereno Sereno 22 22 100 1020 10 N 0
Oggi h: 04:35 sereno Sereno 22 22 100 1019 10 N 0
Oggi h: 04:15 sereno Sereno 22 22 100 1019 10 N 0
Oggi h: 03:55 sereno Sereno 22 22 100 1019 11 N 0
Oggi h: 03:35 sereno Sereno 22 22 100 1019 10 N 0
Oggi h: 03:15 sereno Sereno 22 22 100 1019 10 N 0
Oggi h: 02:55 sereno Sereno 22 22 100 1019 11 N 0
Oggi h: 02:35 sereno Sereno 22 22 100 1020 5 N 0
Oggi h: 02:15 sereno Sereno 22 22 100 1020 8 N 0
Oggi h: 01:55 sereno Sereno 23 23 100 1020 10 N 0
Oggi h: 01:35 sereno Sereno 23 23 100 1020 11 N 0
Oggi h: 01:15 sereno Sereno 23 23 100 1020 10 N 0
Oggi h: 00:55 sereno Sereno 23 23 100 1021 10 N 0
Oggi h: 00:35 sereno Sereno 23 23 100 1020 10 N 0
Oggi h: 00:15 sereno Sereno 23 23 100 1020 10 N 0
Ieri h: 23:55 sereno Sereno 23 23 100 1020 10 N 0
Ieri h: 23:35 sereno Sereno 23 23 100 1020 10 N 0
Ieri h: 23:15 sereno Sereno 24 24 100 1020 10 N 0
Ieri h: 22:55 sereno Sereno 24 24 100 1020 10 N 0
Ieri h: 22:35 sereno Sereno 24 24 100 1020 10 N 0
Ieri h: 22:15 sereno Sereno 24 24 100 1020 10 N 0
Ieri h: 21:55 sereno Sereno 24 24 100 1020 10 N 0
Ieri h: 21:35 sereno Sereno 24 24 100 1020 10 N 0
Ieri h: 21:15 sereno Sereno 25 25 100 1020 10 N 0
Ieri h: 20:55 sereno Sereno 25 25 100 1020 10 N 0
Ieri h: 20:35 sereno Sereno 25 25 100 1020 10 N 0
Ieri h: 20:15 sereno Sereno 25 25 100 1020 10 N 0
Ieri h: 19:55 sereno Sereno 25 25 100 1020 10 N 0
Ieri h: 19:35 nuvoloso Nuvoloso 26 26 100 1020 10 N 0
Ieri h: 19:15 coperto Coperto 27 26 94 1020 10 N 5.5
Ieri h: 18:55 molto_nuvoloso Molto Nuvoloso 27 26 94 1020 10 SE 7.4
Ieri h: 18:35 nuvoloso Nuvoloso 29 25 79 1020 10 N 0
Ieri h: 18:15 molto_nuvoloso Molto Nuvoloso 29 25 79 1020 10 N 0
Ieri h: 17:55 nuvoloso Nuvoloso 29 24 74 1020 10 N 0
Ieri h: 17:35 sereno Sereno 30 25 74 1020 10 N 0